Tracking 19562 objects as of 24-Mar-2019
HD Live streaming from Space Station
objects crossing your sky now

OPS 5112 (NAVSTAR 2)

Track OPS 5112 (NAVSTAR 2) now!
OPS 5112 (NAVSTAR 2) is classified as:


NORAD ID: 10893
Int'l Code: 1978-047A
Perigee: 18,834.8 km
Apogee: 21,356.9 km
Inclination: 64.3 °
Period: 714.2 minutes
Semi major axis: 26466 km
RCS: 0.518 m2 (medium)
Launch date: May 13, 1978
Source: United States (US)
Launch site: AIR FORCE WESTERN TEST RANGE (AFWTR)
aabbcc
Your satellite tracking list
Your tracking list is empty




NASA's NSSDC Master Catalog

Two Line Element Set (TLE):
1 10893U 78047A   19082.57157740 -.00000077  00000-0  00000+0 0  9997
2 10893  64.2504 357.3046 0476472  48.9850 238.7338  2.01627441300448
Source of the keplerian elements: AFSPC